Vorticity
3 10 7 9 7 3 2 -1 16 9 12 10 -1 18 39 11 -2 20 3 18 10 10 7 5 4 4 3 2 3 5 4 4 4 6 4 8 6 10 6 7 3 6 7
12 9 2 0 -0 11 13 1 14 6 8 18 15 -1 7 -8 15 16 11 10 9 10 7 7 5 5 4 3 3 1 4 4 5 8 6 6 6 1 -2 17 9 9 10
3 18 27 14 11 17 4 17 16 -6 18 4 12 5 27 27 -1 8 14 10 9 11 8 7 10 14 11 13 11 6 8 3 3 7 9 7 12 12 7 2 9 6 8
3 -6 12 -2 15 18 21 26 7 32 32 6 8 2 8 12 5 -6 13 8 12 16 12 -5 10 1 -3 2 9 4 4 -23 -13 4 -1 -10 10 -21 -1 16 7 11 11
4 5 4 -9 10 9 26 13 20 14 7 23 49 1 -1 35 10 24 5 5 -5 -23 19 1 -1 -11 -3 4 -16 2 -3 -7 6 -16 -22 6 -13 -20 16 54 12 10 7
27 11 9 9 29 -13 20 38 1 4 15 39 -14 12 5 26 5 12 21 18 -19 -21 -0 18 -6 7 9 28 1 -14 -6 23 4 1 -2 -5 -13 -1 1 6 46 -3 9
21 9 15 30 5 7 28 13 23 19 19 54 -0 28 19 -5 14 44 -5 -28 19 41 74 -3 19 20 17 10 -26 12 18 36 21 22 13 7 15 -1 -5 -0 26 15 -9
7 -2 4 -2 27 1 8 14 8 4 6 4 2 5 5 22 40 3 28 60 3 -7 5 8 7 13 11 7 12 -2 5 -11 43 38 40 53 75 67 62 65 49 51 24
2 2 7 3 15 3 3 1 -1 0 0 4 8 10 9 1 -6 -2 18 7 6 14 9 4 1 6 1 3 1 7 9 6 2 0 7 9 5 13 9 11 19 8 8
21 8 11 8 3 6 3 3 6 8 8 8 8 7 10 14 14 10 7 7 6 7 7 6 3 4 3 9 8 10 10 6 6 10 13 3 3 10 9 9 1 10 3
9 14 15 9 8 8 8 8 7 8 8 9 9 8 7 5 5 7 7 8 10 10 8 8 7 9 10 8 7 6 7 8 8 4 7 5 8 4 6 5 13 18 10
10 8 4 5 8 8 7 6 6 6 6 6 6 7 7 6 6 7 7 8 9 10 11 11 12 13 13 14 12 9 6 6 7 9 12 9 2 19 18 15 12 11 6
7 6 4 3 3 3 2 2 2 2 3 3 3 4 4 4 5 5 4 5 7 7 5 4 3 4 4 4 7 13 15 12 11 8 12 7 11 10 6 7 6 4 3
2 2 2 1 2 2 3 3 3 4 3 5 5 5 5 5 5 5 4 5 7 6 5 6 8 10 8 6 5 5 5 10 23 18 1 12 9 5 8 0 5 7 2
1 2 2 2 1 0 0 3 3 4 6 9 10 11 12 13 13 12 11 10 11 10 8 9 11 10 9 11 13 10 8 9 19 7 1 14 4 5 4 3 5 4 2
2 1 2 2 3 3 4 5 7 11 11 10 10 11 12 12 10 12 14 15 13 11 10 11 9 10 11 12 12 12 12 5 12 24 2 7 14 -3 5 1 6 2 2
1 2 3 5 5 5 8 9 8 8 7 7 8 9 9 9 9 7 8 8 10 14 15 14 13 10 9 11 12 13 12 13 11 17 25 0 13 0 3 -2 4 -0 -1
4 4 4 4 6 6 7 6 7 9 11 10 9 10 11 11 11 13 12 12 10 10 9 9 9 11 13 12 10 11 12 12 12 11 10 14 5 1 11 -1 5 14 1
9 11 12 10 7 6 8 8 8 7 6 7 9 10 11 10 10 10 9 9 10 10 10 10 12 15 12 10 12 11 11 11 12 11 12 11 13 11 8 4 1 9 15
5 6 5 6 9 10 11 13 12 12 12 12 10 9 8 8 7 7 8 7 8 7 7 6 6 7 8 11 15 13 12 12 11 13 12 14 15 10 13 16 15 16 15
4 5 7 7 6 6 6 8 9 10 10 13 14 10 8 7 6 6 6 6 5 5 7 8 8 6 7 7 7 9 16 15 13 10 12 12 12 13 13 11 12 13 10
7 7 8 8 9 11 11 11 12 11 13 10 8 9 9 8 9 8 7 8 10 9 6 9 8 14 16 11 11 10 7 10 17 13 14 12 15 10 11 11 12 11 9
7 7 7 8 9 9 8 8 10 10 10 10 13 15 16 19 19 18 16 15 15 19 16 17 16 14 18 20 16 13 14 10 11 16 16 20 9 9 11 9 10 10 9
7 7 8 7 7 9 11 11 12 13 12 13 13 15 15 17 18 19 21 22 19 17 17 18 19 19 18 22 26 22 15 18 14 11 16 15 11 5 8 10 11 9 13
8 7 7 8 10 11 12 16 19 17 16 16 16 16 15 15 14 14 15 14 12 13 15 14 14 14 13 15 20 25 25 18 26 16 8 12 16 -4 15 13 9 10 10
6 7 8 10 12 14 21 21 12 10 12 13 15 15 16 17 17 17 18 15 17 16 13 11 5 3 6 7 7 10 16 26 25 20 6 20 21 2 4 21 14 9 9
Height
3054 3056 3056 3056 3057 3059 3060 3063 3063 3064 3064 3063 3066 3069 3073 3079 3085 3086 3095 3100 3103 3107 3112 3117 3120 3125 3128 3132 3134 3136 3138 3140 3141 3142 3144 3144 3145 3145 3147 3147 3147 3148 3148
3048 3050 3051 3051 3053 3055 3054 3057 3059 3059 3060 3061 3060 3062 3071 3076 3078 3084 3086 3091 3099 3104 3108 3113 3116 3120 3123 3127 3129 3131 3132 3134 3134 3137 3137 3138 3139 3140 3141 3141 3142 3143 3143
3044 3044 3045 3047 3048 3048 3049 3052 3054 3051 3053 3056 3057 3059 3064 3071 3074 3078 3082 3084 3088 3098 3103 3107 3110 3114 3118 3120 3121 3123 3125 3127 3129 3131 3131 3131 3133 3134 3134 3134 3136 3136 3136
3039 3039 3040 3042 3041 3042 3043 3046 3043 3042 3048 3052 3056 3059 3061 3066 3070 3074 3078 3082 3084 3086 3091 3098 3105 3107 3111 3113 3115 3116 3116 3118 3121 3122 3124 3125 3127 3126 3127 3126 3127 3129 3129
3037 3037 3037 3038 3038 3039 3039 3042 3043 3040 3044 3049 3051 3056 3061 3062 3066 3071 3077 3078 3080 3083 3087 3093 3096 3099 3099 3102 3106 3107 3109 3112 3114 3116 3117 3118 3118 3119 3119 3118 3117 3119 3119
3032 3033 3034 3034 3034 3037 3037 3038 3039 3042 3044 3046 3049 3056 3055 3059 3064 3069 3072 3075 3077 3077 3081 3085 3090 3092 3094 3098 3100 3101 3103 3104 3104 3105 3107 3108 3110 3110 3110 3110 3114 3113 3111
3029 3031 3032 3031 3032 3036 3036 3038 3038 3040 3042 3047 3053 3051 3054 3058 3063 3065 3068 3071 3074 3078 3074 3080 3082 3084 3085 3089 3091 3093 3095 3094 3092 3093 3095 3097 3099 3098 3098 3099 3103 3104 3106
3027 3030 3032 3033 3034 3037 3038 3039 3040 3042 3048 3049 3050 3053 3054 3056 3058 3062 3064 3068 3074 3074 3073 3073 3074 3076 3079 3079 3084 3082 3085 3086 3081 3080 3081 3086 3087 3086 3086 3086 3092 3095 3098
3028 3030 3033 3034 3037 3040 3042 3044 3046 3047 3050 3053 3055 3058 3058 3058 3058 3061 3062 3065 3065 3066 3068 3070 3072 3074 3076 3076 3078 3076 3080 3079 3077 3077 3077 3079 3080 3080 3080 3082 3085 3088 3090
3029 3031 3034 3036 3038 3042 3044 3046 3047 3049 3053 3055 3058 3057 3057 3057 3058 3060 3063 3063 3063 3062 3065 3066 3067 3067 3069 3070 3071 3072 3073 3071 3071 3073 3072 3073 3074 3076 3077 3078 3079 3081 3082
3033 3035 3037 3039 3041 3044 3046 3048 3051 3054 3056 3058 3058 3058 3057 3059 3058 3059 3061 3059 3057 3059 3061 3061 3064 3065 3065 3066 3065 3064 3064 3065 3065 3065 3065 3067 3067 3070 3071 3073 3073 3075 3077
3038 3038 3040 3043 3046 3048 3051 3053 3056 3057 3056 3057 3057 3055 3057 3058 3057 3057 3053 3051 3052 3053 3054 3055 3056 3056 3058 3059 3058 3057 3056 3056 3057 3058 3059 3061 3061 3062 3062 3065 3068 3069 3071
3041 3043 3045 3047 3048 3049 3051 3052 3054 3056 3056 3055 3054 3054 3055 3053 3052 3048 3044 3047 3048 3047 3048 3048 3047 3048 3048 3050 3049 3048 3047 3048 3049 3050 3051 3052 3054 3055 3057 3060 3061 3063 3065
3044 3045 3046 3048 3048 3050 3051 3052 3051 3051 3052 3051 3052 3050 3049 3042 3041 3038 3042 3041 3041 3040 3040 3039 3041 3040 3040 3040 3039 3039 3039 3040 3040 3042 3044 3045 3046 3048 3051 3052 3053 3054 3055
3047 3048 3048 3048 3049 3050 3050 3049 3049 3047 3046 3044 3042 3041 3034 3032 3033 3032 3034 3033 3032 3031 3030 3031 3031 3031 3030 3029 3029 3028 3029 3030 3032 3034 3034 3036 3038 3040 3042 3042 3045 3044 3046
3048 3049 3048 3047 3046 3045 3043 3042 3039 3037 3036 3034 3031 3028 3026 3026 3024 3026 3025 3024 3023 3021 3021 3022 3020 3020 3020 3019 3018 3017 3018 3021 3023 3023 3024 3026 3026 3030 3034 3034 3035 3037 3036
3046 3046 3045 3044 3042 3040 3038 3035 3032 3031 3027 3024 3023 3022 3020 3019 3018 3017 3017 3015 3014 3013 3013 3011 3010 3010 3009 3007 3009 3007 3008 3009 3010 3011 3014 3018 3017 3018 3024 3026 3027 3027 3027
3043 3042 3040 3039 3038 3036 3034 3029 3027 3025 3022 3020 3017 3015 3015 3013 3012 3010 3008 3006 3005 3005 3003 3000 3000 2998 2998 2997 2997 2997 2996 2998 3000 3000 3002 3004 3006 3008 3012 3013 3016 3016 3016
3038 3037 3035 3033 3031 3030 3027 3023 3020 3019 3016 3013 3011 3009 3007 3005 3004 3001 2997 2994 2993 2993 2995 2992 2989 2986 2987 2985 2985 2984 2985 2986 2987 2989 2991 2993 2994 2996 2998 3002 3005 3004 3007
3035 3032 3030 3028 3025 3022 3018 3015 3013 3011 3007 3004 3002 2999 2998 2995 2991 2988 2984 2983 2983 2982 2980 2978 2976 2976 2974 2973 2973 2973 2972 2973 2973 2977 2980 2980 2983 2984 2988 2991 2992 2993 2996
3030 3027 3024 3022 3018 3014 3010 3008 3006 3002 2998 2995 2993 2991 2987 2981 2977 2973 2971 2968 2967 2965 2965 2963 2963 2961 2959 2961 2960 2962 2960 2960 2962 2960 2964 2969 2970 2971 2973 2975 2979 2983 2984
3022 3020 3016 3013 3008 3003 2999 2997 2994 2989 2987 2984 2980 2976 2972 2968 2964 2960 2958 2955 2952 2950 2949 2945 2945 2945 2946 2947 2945 2947 2946 2949 2948 2949 2952 2955 2957 2959 2962 2962 2968 2972 2974
3012 3008 3005 3001 2998 2992 2987 2983 2979 2974 2969 2965 2962 2959 2957 2954 2951 2946 2943 2941 2938 2935 2933 2931 2930 2931 2930 2930 2930 2931 2932 2932 2934 2935 2941 2944 2945 2950 2950 2952 2956 2959 2960
3004 3000 2996 2992 2988 2982 2977 2972 2966 2960 2955 2950 2947 2943 2939 2937 2935 2933 2930 2927 2925 2922 2920 2919 2917 2916 2916 2916 2917 2918 2917 2919 2920 2922 2928 2932 2931 2939 2939 2939 2943 2947 2953
2996 2992 2987 2982 2976 2970 2966 2960 2953 2947 2942 2938 2935 2931 2927 2924 2921 2920 2917 2915 2914 2910 2909 2907 2905 2904 2905 2905 2904 2904 2905 2906 2907 2910 2913 2915 2917 2922 2926 2929 2932 2937 2942
2988 2983 2978 2972 2966 2960 2954 2948 2942 2936 2931 2926 2923 2919 2915 2912 2909 2906 2905 2904 2901 2899 2898 2897 2896 2896 2895 2895 2895 2895 2895 2895 2895 2897 2899 2902 2905 2909 2914 2917 2921 2924 2930